Time,TemperatureF,DewpointF,PressureIn,WindDirection,WindDirectionDegrees,WindSpeedMPH,WindSpeedGustMPH,Humidity,HourlyPrecipIn,Conditions,Clouds,dailyrainin,SoftwareType,DateUTC
2013-05-06 00:01:00,54.6,52.3,29.71,WNW,287,0.0,4.0,92,0.00,,---,0.00,VWS V14.01,2013-05-06 05:01:00,
2013-05-06 00:06:00,54.6,52.3,29.71,WNW,287,0.0,2.0,92,0.00,,---,0.00,VWS V14.01,2013-05-06 05:06:00,
2013-05-06 00:11:00,54.7,52.4,29.71,WNW,287,0.0,2.0,92,0.00,,---,0.00,VWS V14.01,2013-05-06 05:11:00,
2013-05-06 00:16:00,54.7,52.4,29.72,NNW,332,1.0,3.0,92,0.00,,---,0.00,VWS V14.01,2013-05-06 05:16:00,
2013-05-06 00:21:00,54.8,52.8,29.72,WNW,286,0.0,7.0,93,0.00,,---,0.00,VWS V14.01,2013-05-06 05:21:00,
2013-05-06 00:26:00,54.8,52.8,29.72,WNW,294,0.0,7.0,93,0.01,,---,0.01,VWS V14.01,2013-05-06 05:26:00,
2013-05-06 00:31:00,54.8,52.8,29.71,NW,312,0.0,7.0,93,0.01,,---,0.01,VWS V14.01,2013-05-06 05:31:00,
2013-05-06 00:36:00,54.8,52.8,29.71,NNW,344,1.0,5.0,93,0.01,,---,0.01,VWS V14.01,2013-05-06 05:36:00,
2013-05-06 00:41:00,54.8,52.8,29.71,NW,311,0.0,5.0,93,0.01,,---,0.01,VWS V14.01,2013-05-06 05:41:00,
2013-05-06 00:46:00,54.8,52.8,29.71,NW,311,0.0,5.0,93,0.01,,---,0.01,VWS V14.01,2013-05-06 05:46:00,
2013-05-06 00:51:00,54.8,52.8,29.71,NW,311,0.0,5.0,93,0.01,,---,0.01,VWS V14.01,2013-05-06 05:51:00,
2013-05-06 00:56:00,54.8,53.1,29.71,NW,311,0.0,5.0,94,0.01,,---,0.01,VWS V14.01,2013-05-06 05:56:00,
2013-05-06 01:01:00,54.9,53.2,29.70,NW,311,0.0,5.0,94,0.01,,---,0.01,VWS V14.01,2013-05-06 06:01:00,
2013-05-06 01:06:00,54.9,53.2,29.70,NW,311,0.0,2.0,94,0.01,,---,0.01,VWS V14.01,2013-05-06 06:06:00,
2013-05-06 01:11:00,54.9,53.2,29.70,NW,315,0.0,3.0,94,0.01,,---,0.01,VWS V14.01,2013-05-06 06:11:00,
2013-05-06 01:16:00,54.8,53.1,29.69,North,9,0.0,5.0,94,0.01,,---,0.01,VWS V14.01,2013-05-06 06:16:00,
2013-05-06 01:21:00,54.7,53.0,29.69,NNW,336,0.0,7.0,94,0.01,,---,0.01,VWS V14.01,2013-05-06 06:21:00,
2013-05-06 01:26:00,54.6,52.9,29.69,North,355,0.0,7.0,94,0.01,,---,0.01,VWS V14.01,2013-05-06 06:26:00,
2013-05-06 01:31:00,54.5,52.8,29.69,NNW,344,0.0,7.0,94,0.01,,---,0.01,VWS V14.01,2013-05-06 06:31:00,
2013-05-06 01:36:00,54.4,52.7,29.69,North,355,0.0,4.0,94,0.00,,---,0.01,VWS V14.01,2013-05-06 06:36:00,
2013-05-06 01:41:00,54.3,52.6,29.69,North,9,4.0,7.0,94,0.00,,---,0.01,VWS V14.01,2013-05-06 06:41:00,
2013-05-06 01:46:00,54.2,52.5,29.69,North,355,1.0,7.0,94,0.00,,---,0.01,VWS V14.01,2013-05-06 06:46:00,
2013-05-06 01:51:00,54.1,52.4,29.69,North,351,1.0,7.0,94,0.00,,---,0.01,VWS V14.01,2013-05-06 06:51:00,
2013-05-06 01:56:00,54.1,52.1,29.69,NE,53,0.0,7.0,93,0.00,,---,0.01,VWS V14.01,2013-05-06 06:56:00,
2013-05-06 02:01:00,54.0,52.0,29.69,NNE,28,1.0,7.0,93,0.00,,---,0.01,VWS V14.01,2013-05-06 07:01:00,
2013-05-06 02:06:00,54.0,52.0,29.69,North,351,0.0,4.0,93,0.00,,---,0.01,VWS V14.01,2013-05-06 07:06:00,
2013-05-06 02:11:00,54.0,52.0,29.69,North,5,0.0,4.0,93,0.00,,---,0.01,VWS V14.01,2013-05-06 07:11:00,
2013-05-06 02:16:00,53.9,51.9,29.68,North,350,2.0,4.0,93,0.00,,---,0.01,VWS V14.01,2013-05-06 07:16:00,
2013-05-06 02:21:00,53.9,51.9,29.68,NNE,15,0.0,4.0,93,0.00,,---,0.01,VWS V14.01,2013-05-06 07:21:00,
2013-05-06 02:26:00,53.9,51.9,29.68,NNE,15,0.0,4.0,93,0.00,,---,0.01,VWS V14.01,2013-05-06 07:26:00,
2013-05-06 02:31:00,53.9,51.9,29.69,NNE,15,0.0,4.0,93,0.00,,---,0.01,VWS V14.01,2013-05-06 07:31:00,
2013-05-06 02:36:00,53.9,51.9,29.69,North,350,0.0,5.0,93,0.00,,---,0.01,VWS V14.01,2013-05-06 07:36:00,
2013-05-06 02:41:00,53.9,51.9,29.69,North,355,0.0,5.0,93,0.00,,---,0.01,VWS V14.01,2013-05-06 07:41:00,
2013-05-06 02:46:00,53.9,51.9,29.69,North,360,0.0,5.0,93,0.00,,---,0.01,VWS V14.01,2013-05-06 07:46:00,
2013-05-06 02:51:00,53.9,51.9,29.69,North,360,1.0,5.0,93,0.00,,---,0.01,VWS V14.01,2013-05-06 07:51:00,
2013-05-06 02:56:00,53.9,51.9,29.69,NNW,343,0.0,5.0,93,0.00,,---,0.01,VWS V14.01,2013-05-06 07:56:00,
2013-05-06 03:01:00,53.9,51.9,29.69,NNW,343,0.0,5.0,93,0.00,,---,0.01,VWS V14.01,2013-05-06 08:01:00,
2013-05-06 03:06:00,53.9,51.9,29.69,NNE,15,1.0,2.0,93,0.00,,---,0.01,VWS V14.01,2013-05-06 08:06:00,
2013-05-06 03:11:00,53.9,51.9,29.69,NNE,15,0.0,2.0,93,0.00,,---,0.01,VWS V14.01,2013-05-06 08:11:00,
2013-05-06 03:16:00,53.8,51.8,29.69,ENE,78,1.0,4.0,93,0.00,,---,0.01,VWS V14.01,2013-05-06 08:16:00,
2013-05-06 03:21:00,53.7,51.7,29.69,North,5,0.0,4.0,93,0.00,,---,0.01,VWS V14.01,2013-05-06 08:21:00,
2013-05-06 03:26:00,53.7,51.7,29.69,East,90,0.0,4.0,93,0.00,,---,0.01,VWS V14.01,2013-05-06 08:26:00,
2013-05-06 03:31:00,53.6,51.6,29.70,ENE,69,0.0,4.0,93,0.00,,---,0.01,VWS V14.01,2013-05-06 08:31:00,
2013-05-06 03:36:00,53.6,51.6,29.70,NE,51,0.0,3.0,93,0.00,,---,0.01,VWS V14.01,2013-05-06 08:36:00,
2013-05-06 03:41:00,53.5,51.5,29.70,NE,52,0.0,4.0,93,0.00,,---,0.01,VWS V14.01,2013-05-06 08:41:00,
2013-05-06 03:46:00,53.5,51.5,29.69,North,5,0.0,4.0,93,0.00,,---,0.01,VWS V14.01,2013-05-06 08:46:00,
2013-05-06 03:51:00,53.3,51.3,29.69,North,349,0.0,4.0,93,0.00,,---,0.01,VWS V14.01,2013-05-06 08:51:00,
2013-05-06 03:56:00,53.3,51.3,29.69,North,349,1.0,4.0,93,0.00,,---,0.01,VWS V14.01,2013-05-06 08:56:00,
2013-05-06 04:01:00,53.3,51.3,29.69,West,281,1.0,4.0,93,0.00,,---,0.01,VWS V14.01,2013-05-06 09:01:00,
2013-05-06 04:06:00,53.3,51.3,29.69,NW,317,0.0,3.0,93,0.00,,---,0.01,VWS V14.01,2013-05-06 09:06:00,
2013-05-06 04:11:00,53.3,51.3,29.69,NNW,337,0.0,3.0,93,0.00,,---,0.01,VWS V14.01,2013-05-06 09:11:00,
2013-05-06 04:16:00,53.2,50.9,29.69,NW,320,2.0,4.0,92,0.00,,---,0.01,VWS V14.01,2013-05-06 09:16:00,
2013-05-06 04:21:00,53.2,50.9,29.69,NNW,346,0.0,5.0,92,0.00,,---,0.01,VWS V14.01,2013-05-06 09:21:00,
2013-05-06 04:26:00,53.1,50.8,29.69,North,355,0.0,5.0,92,0.00,,---,0.01,VWS V14.01,2013-05-06 09:26:00,
2013-05-06 04:31:00,53.1,50.8,29.69,North,355,4.0,7.0,92,0.00,,---,0.01,VWS V14.01,2013-05-06 09:31:00,
2013-05-06 04:36:00,53.1,50.8,29.69,WNW,302,0.0,3.0,92,0.00,,---,0.01,VWS V14.01,2013-05-06 09:36:00,
2013-05-06 04:41:00,53.1,50.8,29.69,NNW,344,5.0,5.0,92,0.00,,---,0.01,VWS V14.01,2013-05-06 09:41:00,
2013-05-06 04:46:00,53.0,50.7,29.69,NNW,344,0.0,5.0,92,0.00,,---,0.01,VWS V14.01,2013-05-06 09:46:00,
2013-05-06 04:51:00,53.0,50.7,29.69,North,360,3.0,6.0,92,0.00,,---,0.01,VWS V14.01,2013-05-06 09:51:00,
2013-05-06 04:56:00,53.0,50.7,29.69,NNW,327,0.0,6.0,92,0.00,,---,0.01,VWS V14.01,2013-05-06 09:56:00,
2013-05-06 05:01:00,53.0,50.7,29.69,North,355,3.0,6.0,92,0.00,,---,0.01,VWS V14.01,2013-05-06 10:01:00,
2013-05-06 05:06:00,53.0,50.7,29.69,North,9,3.0,4.0,92,0.00,,---,0.01,VWS V14.01,2013-05-06 10:06:00,
2013-05-06 05:11:00,53.0,50.7,29.69,NNW,335,3.0,4.0,92,0.00,,---,0.01,VWS V14.01,2013-05-06 10:11:00,
2013-05-06 05:16:00,52.9,50.6,29.69,NNW,334,1.0,4.0,92,0.00,,---,0.01,VWS V14.01,2013-05-06 10:16:00,
2013-05-06 05:21:00,52.9,50.6,29.69,North,5,0.0,4.0,92,0.00,,---,0.01,VWS V14.01,2013-05-06 10:21:00,
2013-05-06 05:26:00,52.9,50.6,29.69,NNW,337,0.0,4.0,92,0.00,,---,0.01,VWS V14.01,2013-05-06 10:26:00,
2013-05-06 05:31:00,52.9,50.6,29.69,North,355,0.0,5.0,92,0.00,,---,0.01,VWS V14.01,2013-05-06 10:31:00,
2013-05-06 05:36:00,52.9,50.6,29.69,NW,317,2.0,5.0,92,0.00,,---,0.01,VWS V14.01,2013-05-06 10:36:00,
2013-05-06 05:41:00,52.9,50.6,29.69,North,360,5.0,5.0,92,0.00,,---,0.01,VWS V14.01,2013-05-06 10:41:00,
2013-05-06 05:46:00,52.9,50.6,29.70,North,360,0.0,5.0,92,0.00,,---,0.01,VWS V14.01,2013-05-06 10:46:00,
2013-05-06 05:51:00,52.9,50.6,29.70,North,360,0.0,5.0,92,0.00,,---,0.01,VWS V14.01,2013-05-06 10:51:00,
2013-05-06 05:56:00,52.9,50.6,29.70,NNW,329,0.0,5.0,92,0.00,,---,0.01,VWS V14.01,2013-05-06 10:56:00,
2013-05-06 06:01:00,52.9,50.6,29.70,NW,314,3.0,5.0,92,0.01,,---,0.02,VWS V14.01,2013-05-06 11:01:00,
2013-05-06 06:06:00,52.9,50.6,29.70,NNE,30,4.0,6.0,92,0.01,,---,0.02,VWS V14.01,2013-05-06 11:06:00,
2013-05-06 06:11:00,52.8,50.5,29.70,NNW,335,2.0,6.0,92,0.01,,---,0.02,VWS V14.01,2013-05-06 11:11:00,
2013-05-06 06:16:00,52.8,50.5,29.71,WNW,300,1.0,6.0,92,0.01,,---,0.02,VWS V14.01,2013-05-06 11:16:00,
2013-05-06 06:21:00,52.8,50.5,29.71,NW,309,1.0,6.0,92,0.01,,---,0.02,VWS V14.01,2013-05-06 11:21:00,
2013-05-06 06:26:00,52.8,50.5,29.71,WNW,301,5.0,6.0,92,0.01,,---,0.02,VWS V14.01,2013-05-06 11:26:00,
2013-05-06 06:31:00,52.8,50.8,29.71,NW,323,2.0,6.0,93,0.01,,---,0.02,VWS V14.01,2013-05-06 11:31:00,
2013-05-06 06:36:00,52.8,50.8,29.71,NW,308,3.0,8.0,93,0.01,,---,0.02,VWS V14.01,2013-05-06 11:36:00,
2013-05-06 06:41:00,52.8,50.8,29.71,NNE,29,2.0,8.0,93,0.01,,---,0.02,VWS V14.01,2013-05-06 11:41:00,
2013-05-06 06:46:00,52.8,50.8,29.71,North,355,3.0,8.0,93,0.01,,---,0.02,VWS V14.01,2013-05-06 11:46:00,
2013-05-06 06:51:00,52.8,50.8,29.71,WNW,295,3.0,8.0,93,0.01,,---,0.02,VWS V14.01,2013-05-06 11:51:00,
2013-05-06 06:56:00,52.8,50.8,29.71,NNW,334,2.0,8.0,93,0.01,,---,0.02,VWS V14.01,2013-05-06 11:56:00,
2013-05-06 07:01:00,52.7,50.7,29.72,NNW,331,2.0,8.0,93,0.01,,---,0.02,VWS V14.01,2013-05-06 12:01:00,
2013-05-06 07:06:00,52.7,50.7,29.72,North,360,5.0,7.0,93,0.00,,---,0.02,VWS V14.01,2013-05-06 12:06:00,
2013-05-06 07:11:00,52.7,50.7,29.72,NNW,348,2.0,9.0,93,0.00,,---,0.02,VWS V14.01,2013-05-06 12:11:00,
2013-05-06 07:16:00,52.8,50.8,29.72,NW,308,2.0,9.0,93,0.00,,---,0.02,VWS V14.01,2013-05-06 12:16:00,
2013-05-06 07:21:00,52.8,50.8,29.72,WNW,291,0.0,9.0,93,0.00,,---,0.02,VWS V14.01,2013-05-06 12:21:00,
2013-05-06 07:26:00,52.8,51.1,29.72,NNW,348,1.0,9.0,94,0.00,,---,0.02,VWS V14.01,2013-05-06 12:26:00,
2013-05-06 07:31:00,52.8,51.1,29.72,NE,44,0.0,9.0,94,0.00,,---,0.02,VWS V14.01,2013-05-06 12:31:00,
2013-05-06 07:36:00,52.8,51.1,29.72,North,355,7.0,7.0,94,0.00,,---,0.02,VWS V14.01,2013-05-06 12:36:00,
2013-05-06 07:41:00,52.9,51.2,29.72,NNW,327,1.0,7.0,94,0.00,,---,0.02,VWS V14.01,2013-05-06 12:41:00,
2013-05-06 07:46:00,53.0,51.3,29.71,North,9,1.0,10.0,94,0.00,,---,0.02,VWS V14.01,2013-05-06 12:46:00,
2013-05-06 07:51:00,53.1,51.4,29.71,West,281,2.0,11.0,94,0.00,,---,0.02,VWS V14.01,2013-05-06 12:51:00,
2013-05-06 07:56:00,53.3,51.6,29.71,NNW,344,5.0,11.0,94,0.00,,---,0.02,VWS V14.01,2013-05-06 12:56:00,
2013-05-06 08:01:00,53.5,51.8,29.71,NW,315,4.0,11.0,94,0.00,,---,0.02,VWS V14.01,2013-05-06 13:01:00,
2013-05-06 08:06:00,53.5,51.8,29.71,NW,312,1.0,10.0,94,0.00,,---,0.02,VWS V14.01,2013-05-06 13:06:00,
2013-05-06 08:11:00,53.7,52.0,29.71,WNW,303,4.0,10.0,94,0.00,,---,0.02,VWS V14.01,2013-05-06 13:11:00,
2013-05-06 08:16:00,53.8,52.1,29.72,North,351,3.0,10.0,94,0.00,,---,0.02,VWS V14.01,2013-05-06 13:16:00,
2013-05-06 08:21:00,53.8,52.1,29.72,NNW,340,0.0,10.0,94,0.00,,---,0.02,VWS V14.01,2013-05-06 13:21:00,
2013-05-06 08:26:00,53.9,52.2,29.72,NW,306,0.0,10.0,94,0.00,,---,0.02,VWS V14.01,2013-05-06 13:26:00,
2013-05-06 08:31:00,54.0,52.3,29.73,NNW,346,2.0,10.0,94,0.00,,---,0.02,VWS V14.01,2013-05-06 13:31:00,
2013-05-06 08:36:00,54.1,52.4,29.73,NNE,22,3.0,5.0,94,0.00,,---,0.02,VWS V14.01,2013-05-06 13:36:00,
2013-05-06 08:41:00,54.1,52.1,29.73,NW,324,1.0,11.0,93,0.00,,---,0.02,VWS V14.01,2013-05-06 13:41:00,
2013-05-06 08:46:00,54.2,52.2,29.73,North,360,0.0,11.0,93,0.00,,---,0.02,VWS V14.01,2013-05-06 13:46:00,
2013-05-06 08:51:00,54.3,52.3,29.73,North,350,2.0,11.0,93,0.00,,---,0.02,VWS V14.01,2013-05-06 13:51:00,
2013-05-06 08:56:00,54.4,52.4,29.73,NW,313,5.0,11.0,93,0.00,,---,0.02,VWS V14.01,2013-05-06 13:56:00,
2013-05-06 09:01:00,54.4,52.4,29.73,North,360,4.0,11.0,93,0.00,,---,0.02,VWS V14.01,2013-05-06 14:01:00,
2013-05-06 09:06:00,54.5,52.5,29.73,NE,34,1.0,4.0,93,0.00,,---,0.02,VWS V14.01,2013-05-06 14:06:00,
2013-05-06 09:11:00,54.7,52.7,29.73,NNW,331,0.0,5.0,93,0.00,,---,0.02,VWS V14.01,2013-05-06 14:11:00,
2013-05-06 09:16:00,54.8,52.8,29.73,North,9,3.0,10.0,93,0.00,,---,0.02,VWS V14.01,2013-05-06 14:16:00,
2013-05-06 09:21:00,54.8,52.8,29.73,NNW,329,3.0,10.0,93,0.00,,---,0.02,VWS V14.01,2013-05-06 14:21:00,
2013-05-06 09:26:00,55.0,53.0,29.73,WNW,294,3.0,10.0,93,0.00,,---,0.02,VWS V14.01,2013-05-06 14:26:00,
2013-05-06 09:31:00,55.2,53.2,29.73,NW,315,3.0,10.0,93,0.00,,---,0.02,VWS V14.01,2013-05-06 14:31:00,
2013-05-06 09:36:00,55.3,53.3,29.73,NNE,29,1.0,7.0,93,0.00,,---,0.02,VWS V14.01,2013-05-06 14:36:00,
2013-05-06 09:41:00,55.5,53.5,29.73,ENE,63,2.0,9.0,93,0.00,,---,0.02,VWS V14.01,2013-05-06 14:41:00,
2013-05-06 09:46:00,55.5,53.5,29.73,NW,313,2.0,9.0,93,0.00,,---,0.02,VWS V14.01,2013-05-06 14:46:00,
2013-05-06 09:51:00,55.7,53.7,29.73,North,360,4.0,9.0,93,0.00,,---,0.02,VWS V14.01,2013-05-06 14:51:00,
2013-05-06 09:56:00,55.8,53.8,29.73,NNW,337,3.0,9.0,93,0.00,,---,0.02,VWS V14.01,2013-05-06 14:56:00,
2013-05-06 10:01:00,55.9,53.6,29.72,North,9,3.0,9.0,92,0.00,,---,0.02,VWS V14.01,2013-05-06 15:01:00,
2013-05-06 10:06:00,56.0,53.7,29.72,NNW,346,3.0,7.0,92,0.00,,---,0.02,VWS V14.01,2013-05-06 15:06:00,
2013-05-06 10:11:00,56.2,53.9,29.72,NW,319,3.0,8.0,92,0.00,,---,0.02,VWS V14.01,2013-05-06 15:11:00,
2013-05-06 10:16:00,56.3,54.0,29.73,NNE,12,3.0,8.0,92,0.00,,---,0.02,VWS V14.01,2013-05-06 15:16:00,
2013-05-06 10:21:00,56.5,54.2,29.73,NW,325,1.0,9.0,92,0.00,,---,0.02,VWS V14.01,2013-05-06 15:21:00,
2013-05-06 10:26:00,56.7,54.1,29.73,West,279,3.0,9.0,91,0.00,,---,0.02,VWS V14.01,2013-05-06 15:26:00,
2013-05-06 10:31:00,56.8,54.2,29.73,NNE,29,2.0,12.0,91,0.00,,---,0.02,VWS V14.01,2013-05-06 15:31:00,
2013-05-06 10:36:00,57.0,54.4,29.73,WNW,301,2.0,6.0,91,0.00,,---,0.02,VWS V14.01,2013-05-06 15:36:00,
2013-05-06 10:41:00,57.3,54.7,29.73,NNW,331,2.0,6.0,91,0.00,,---,0.02,VWS V14.01,2013-05-06 15:41:00,
2013-05-06 10:46:00,57.3,54.4,29.74,NE,38,5.0,13.0,90,0.00,,---,0.02,VWS V14.01,2013-05-06 15:46:00,
2013-05-06 10:51:00,57.3,54.4,29.74,NE,54,3.0,13.0,90,0.00,,---,0.02,VWS V14.01,2013-05-06 15:51:00,
2013-05-06 10:56:00,57.5,54.3,29.74,North,355,2.0,13.0,89,0.00,,---,0.02,VWS V14.01,2013-05-06 15:56:00,
2013-05-06 11:01:00,57.5,54.3,29.74,NNE,29,2.0,13.0,89,0.00,,---,0.02,VWS V14.01,2013-05-06 16:01:00,
2013-05-06 11:06:00,57.5,54.3,29.74,North,11,3.0,9.0,89,0.00,,---,0.02,VWS V14.01,2013-05-06 16:06:00,
2013-05-06 11:11:00,57.4,54.2,29.74,North,360,2.0,11.0,89,0.00,,---,0.02,VWS V14.01,2013-05-06 16:11:00,
2013-05-06 11:16:00,57.4,54.2,29.74,NE,35,4.0,11.0,89,0.00,,---,0.02,VWS V14.01,2013-05-06 16:16:00,
2013-05-06 11:21:00,57.4,54.2,29.74,ENE,63,5.0,11.0,89,0.00,,---,0.02,VWS V14.01,2013-05-06 16:21:00,
2013-05-06 11:26:00,57.4,54.2,29.74,NE,46,2.0,11.0,89,0.00,,---,0.02,VWS V14.01,2013-05-06 16:26:00,
2013-05-06 11:31:00,57.5,54.3,29.74,North,11,4.0,11.0,89,0.00,,---,0.02,VWS V14.01,2013-05-06 16:31:00,
2013-05-06 11:36:00,57.5,54.3,29.74,NW,324,2.0,11.0,89,0.00,,---,0.02,VWS V14.01,2013-05-06 16:36:00,
2013-05-06 11:41:00,57.6,54.4,29.74,North,350,1.0,11.0,89,0.00,,---,0.02,VWS V14.01,2013-05-06 16:41:00,
2013-05-06 11:46:00,57.6,54.4,29.75,North,9,3.0,11.0,89,0.00,,---,0.02,VWS V14.01,2013-05-06 16:46:00,
2013-05-06 11:51:00,57.5,54.3,29.75,North,351,2.0,11.0,89,0.00,,---,0.02,VWS V14.01,2013-05-06 16:51:00,
2013-05-06 11:56:00,57.6,54.7,29.75,NNW,346,1.0,11.0,90,0.00,,---,0.02,VWS V14.01,2013-05-06 16:56:00,
2013-05-06 12:01:00,57.7,54.8,29.74,North,360,3.0,11.0,90,0.00,,---,0.02,VWS V14.01,2013-05-06 17:01:00,
2013-05-06 12:06:00,57.6,54.7,29.74,North,349,3.0,11.0,90,0.00,,---,0.02,VWS V14.01,2013-05-06 17:06:00,
2013-05-06 12:11:00,57.5,54.9,29.74,North,355,0.0,11.0,91,0.00,,---,0.02,VWS V14.01,2013-05-06 17:11:00,
2013-05-06 12:16:00,57.4,55.1,29.74,North,5,0.0,11.0,92,0.00,,---,0.02,VWS V14.01,2013-05-06 17:16:00,
2013-05-06 12:21:00,57.3,55.0,29.74,NNW,336,2.0,11.0,92,0.01,,---,0.03,VWS V14.01,2013-05-06 17:21:00,
2013-05-06 12:26:00,57.2,54.9,29.74,NNE,17,0.0,11.0,92,0.01,,---,0.03,VWS V14.01,2013-05-06 17:26:00,
2013-05-06 12:31:00,57.3,55.0,29.74,NE,36,2.0,11.0,92,0.01,,---,0.03,VWS V14.01,2013-05-06 17:31:00,
2013-05-06 12:36:00,57.4,55.4,29.74,North,5,3.0,10.0,93,0.01,,---,0.03,VWS V14.01,2013-05-06 17:36:00,
2013-05-06 12:41:00,58.0,56.3,29.74,North,360,3.0,10.0,94,0.01,,---,0.03,VWS V14.01,2013-05-06 17:41:00,
2013-05-06 12:46:00,58.5,56.5,29.74,WNW,283,3.0,10.0,93,0.01,,---,0.03,VWS V14.01,2013-05-06 17:46:00,
2013-05-06 12:51:00,59.0,57.0,29.74,NNW,339,3.0,10.0,93,0.01,,---,0.03,VWS V14.01,2013-05-06 17:51:00,
2013-05-06 12:56:00,59.5,57.5,29.74,NE,34,0.0,10.0,93,0.01,,---,0.03,VWS V14.01,2013-05-06 17:56:00,
2013-05-06 13:01:00,59.8,57.5,29.74,NE,34,0.0,10.0,92,0.01,,---,0.03,VWS V14.01,2013-05-06 18:01:00,
2013-05-06 13:06:00,60.2,57.6,29.74,North,360,6.0,9.0,91,0.01,,---,0.03,VWS V14.01,2013-05-06 18:06:00,
2013-05-06 13:11:00,60.4,57.2,29.74,North,349,0.0,9.0,89,0.01,,---,0.03,VWS V14.01,2013-05-06 18:11:00,
2013-05-06 13:16:00,60.5,56.6,29.74,NNE,24,3.0,9.0,87,0.01,,---,0.03,VWS V14.01,2013-05-06 18:16:00,
2013-05-06 13:21:00,60.6,56.4,29.74,NE,38,2.0,9.0,86,0.01,,---,0.03,VWS V14.01,2013-05-06 18:21:00,
2013-05-06 13:26:00,60.8,56.6,29.74,ENE,58,0.0,9.0,86,0.01,,---,0.03,VWS V14.01,2013-05-06 18:26:00,
2013-05-06 13:31:00,61.3,57.1,29.73,North,360,0.0,9.0,86,0.01,,---,0.03,VWS V14.01,2013-05-06 18:31:00,
2013-05-06 13:36:00,61.8,57.2,29.73,North,355,2.0,9.0,85,0.00,,---,0.03,VWS V14.01,2013-05-06 18:36:00,
2013-05-06 13:41:00,62.2,57.3,29.73,ENE,66,0.0,9.0,84,0.00,,---,0.03,VWS V14.01,2013-05-06 18:41:00,
2013-05-06 13:46:00,62.7,57.1,29.73,NE,39,1.0,9.0,82,0.00,,---,0.03,VWS V14.01,2013-05-06 18:46:00,
2013-05-06 13:51:00,63.5,57.6,29.73,NNE,17,4.0,9.0,81,0.00,,---,0.03,VWS V14.01,2013-05-06 18:51:00,
2013-05-06 13:56:00,64.5,58.2,29.73,NNW,348,6.0,9.0,80,0.00,,---,0.03,VWS V14.01,2013-05-06 18:56:00,
2013-05-06 14:02:00,64.8,57.1,29.72,NW,315,5.0,11.0,76,0.00,,---,0.03,VWS V14.01,2013-05-06 19:02:00,
2013-05-06 14:06:00,64.9,56.8,29.72,West,279,4.0,9.0,75,0.00,,---,0.03,VWS V14.01,2013-05-06 19:06:00,
2013-05-06 14:12:00,65.4,56.5,29.72,North,355,5.0,10.0,73,0.00,,---,0.03,VWS V14.01,2013-05-06 19:12:00,
2013-05-06 14:16:00,64.7,55.9,29.72,NE,38,3.0,13.0,73,0.00,,---,0.03,VWS V14.01,2013-05-06 19:16:00,
2013-05-06 14:21:00,64.1,56.0,29.72,NNE,27,6.0,13.0,75,0.00,,---,0.03,VWS V14.01,2013-05-06 19:21:00,
2013-05-06 14:26:00,64.2,55.8,29.72,NE,56,6.0,13.0,74,0.00,,---,0.03,VWS V14.01,2013-05-06 19:26:00,
2013-05-06 14:31:00,64.1,55.7,29.73,NNW,342,10.0,13.0,74,0.00,,---,0.03,VWS V14.01,2013-05-06 19:31:00,
2013-05-06 14:36:00,63.6,55.2,29.73,NE,48,4.0,11.0,74,0.00,,---,0.03,VWS V14.01,2013-05-06 19:36:00,
2013-05-06 14:41:00,63.2,55.2,29.73,North,360,5.0,11.0,75,0.00,,---,0.03,VWS V14.01,2013-05-06 19:41:00,
2013-05-06 14:46:00,63.0,55.3,29.73,East,82,2.0,11.0,76,0.00,,---,0.03,VWS V14.01,2013-05-06 19:46:00,
2013-05-06 14:51:00,62.9,55.6,29.73,ENE,58,1.0,11.0,77,0.00,,---,0.03,VWS V14.01,2013-05-06 19:51:00,
2013-05-06 14:56:00,62.8,55.8,29.73,ENE,66,1.0,11.0,78,0.00,,---,0.03,VWS V14.01,2013-05-06 19:56:00,
2013-05-06 15:01:00,62.7,56.1,29.73,East,79,2.0,11.0,79,0.00,,---,0.03,VWS V14.01,2013-05-06 20:01:00,
2013-05-06 15:07:00,62.6,56.3,29.73,SE,127,0.0,4.0,80,0.00,,---,0.03,VWS V14.01,2013-05-06 20:07:00,
2013-05-06 15:12:00,61.9,55.0,29.73,ESE,114,0.0,5.0,78,0.00,,---,0.03,VWS V14.01,2013-05-06 20:12:00,
2013-05-06 15:17:00,61.3,54.4,29.74,ENE,66,2.0,5.0,78,0.00,,---,0.03,VWS V14.01,2013-05-06 20:17:00,
2013-05-06 15:22:00,60.4,53.5,29.74,ENE,74,0.0,5.0,78,0.00,,---,0.03,VWS V14.01,2013-05-06 20:22:00,
2013-05-06 15:26:00,60.2,54.0,29.74,ENE,73,0.0,5.0,80,0.00,,---,0.03,VWS V14.01,2013-05-06 20:26:00,
2013-05-06 15:31:00,59.9,53.7,29.72,ENE,73,0.0,5.0,80,0.00,,---,0.03,VWS V14.01,2013-05-06 20:31:00,
2013-05-06 15:37:00,60.1,54.6,29.72,ENE,74,0.0,0.0,82,0.00,,---,0.03,VWS V14.01,2013-05-06 20:37:00,
2013-05-06 15:42:00,60.3,54.5,29.72,ENE,73,0.0,1.0,81,0.00,,---,0.03,VWS V14.01,2013-05-06 20:42:00,
2013-05-06 15:47:00,60.2,54.7,29.73,ENE,74,0.0,1.0,82,0.00,,---,0.03,VWS V14.01,2013-05-06 20:47:00,
2013-05-06 15:52:00,60.1,54.6,29.73,ENE,73,0.0,1.0,82,0.00,,---,0.03,VWS V14.01,2013-05-06 20:52:00,
2013-05-06 15:57:00,59.9,54.4,29.73,ENE,73,0.0,1.0,82,0.00,,---,0.03,VWS V14.01,2013-05-06 20:57:00,
2013-05-06 16:02:00,59.7,54.5,29.72,ENE,74,0.0,1.0,83,0.01,,---,0.04,VWS V14.01,2013-05-06 21:02:00,
2013-05-06 16:07:00,59.6,54.8,29.72,ENE,57,0.0,1.0,84,0.01,,---,0.04,VWS V14.01,2013-05-06 21:07:00,
2013-05-06 16:12:00,59.3,54.8,29.72,ENE,57,0.0,1.0,85,0.01,,---,0.04,VWS V14.01,2013-05-06 21:12:00,
2013-05-06 16:17:00,59.1,55.2,29.73,NE,55,0.0,1.0,87,0.01,,---,0.04,VWS V14.01,2013-05-06 21:17:00,
2013-05-06 16:22:00,59.0,55.1,29.73,ENE,57,0.0,1.0,87,0.01,,---,0.04,VWS V14.01,2013-05-06 21:22:00,
2013-05-06 16:27:00,59.0,55.5,29.73,NE,56,0.0,1.0,88,0.01,,---,0.04,VWS V14.01,2013-05-06 21:27:00,
2013-05-06 16:32:00,59.0,55.5,29.72,NE,56,0.0,1.0,88,0.01,,---,0.04,VWS V14.01,2013-05-06 21:32:00,
2013-05-06 16:37:00,59.0,55.8,29.72,ENE,57,0.0,0.0,89,0.01,,---,0.04,VWS V14.01,2013-05-06 21:37:00,
2013-05-06 16:42:00,59.0,56.1,29.72,NE,56,0.0,0.0,90,0.01,,---,0.04,VWS V14.01,2013-05-06 21:42:00,
2013-05-06 16:47:00,59.0,56.1,29.73,NE,55,0.0,0.0,90,0.01,,---,0.04,VWS V14.01,2013-05-06 21:47:00,
2013-05-06 16:52:00,59.0,56.1,29.73,ENE,57,0.0,1.0,90,0.01,,---,0.04,VWS V14.01,2013-05-06 21:52:00,
2013-05-06 16:57:00,58.8,55.9,29.73,NE,56,0.0,1.0,90,0.01,,---,0.04,VWS V14.01,2013-05-06 21:57:00,
2013-05-06 17:02:00,58.7,55.8,29.74,ENE,57,0.0,0.0,90,0.00,,---,0.04,VWS V14.01,2013-05-06 22:02:00,
2013-05-06 17:07:00,58.7,55.8,29.74,ENE,57,0.0,0.0,90,0.00,,---,0.04,VWS V14.01,2013-05-06 22:07:00,
2013-05-06 17:12:00,58.8,56.2,29.74,NE,53,0.0,1.0,91,0.00,,---,0.04,VWS V14.01,2013-05-06 22:12:00,
2013-05-06 17:17:00,58.8,56.2,29.74,NE,53,0.0,1.0,91,0.00,,---,0.04,VWS V14.01,2013-05-06 22:17:00,
2013-05-06 17:22:00,58.6,56.0,29.74,NE,44,0.0,1.0,91,0.00,,---,0.04,VWS V14.01,2013-05-06 22:22:00,
2013-05-06 17:27:00,58.6,56.0,29.74,NE,44,0.0,1.0,91,0.00,,---,0.04,VWS V14.01,2013-05-06 22:27:00,
2013-05-06 17:32:00,58.6,56.0,29.74,NW,309,0.0,3.0,91,0.00,,---,0.04,VWS V14.01,2013-05-06 22:32:00,
2013-05-06 17:37:00,58.5,55.9,29.74,WNW,286,1.0,4.0,91,0.00,,---,0.04,VWS V14.01,2013-05-06 22:37:00,
2013-05-06 17:42:00,58.3,55.4,29.74,North,355,2.0,5.0,90,0.00,,---,0.04,VWS V14.01,2013-05-06 22:42:00,
2013-05-06 17:47:00,58.4,55.2,29.74,North,355,0.0,5.0,89,0.00,,---,0.04,VWS V14.01,2013-05-06 22:47:00,
2013-05-06 17:52:00,58.6,55.4,29.74,North,360,0.0,5.0,89,0.00,,---,0.04,VWS V14.01,2013-05-06 22:52:00,
2013-05-06 17:57:00,58.7,55.5,29.74,NNW,342,2.0,5.0,89,0.00,,---,0.04,VWS V14.01,2013-05-06 22:57:00,
2013-05-06 18:02:00,58.7,55.2,29.75,NW,321,1.0,5.0,88,0.00,,---,0.04,VWS V14.01,2013-05-06 23:02:00,
2013-05-06 18:07:00,58.8,55.3,29.75,WNW,294,1.0,5.0,88,0.00,,---,0.04,VWS V14.01,2013-05-06 23:07:00,
2013-05-06 18:12:00,58.9,55.4,29.75,NW,304,0.0,5.0,88,0.00,,---,0.04,VWS V14.01,2013-05-06 23:12:00,
2013-05-06 18:17:00,59.0,55.8,29.75,NW,312,0.0,5.0,89,0.00,,---,0.04,VWS V14.01,2013-05-06 23:17:00,
2013-05-06 18:22:00,59.0,55.8,29.75,NW,315,0.0,5.0,89,0.00,,---,0.04,VWS V14.01,2013-05-06 23:22:00,
2013-05-06 18:27:00,59.1,55.9,29.75,WNW,285,2.0,5.0,89,0.00,,---,0.04,VWS V14.01,2013-05-06 23:27:00,
2013-05-06 18:32:00,59.5,56.3,29.75,WNW,303,4.0,5.0,89,0.00,,---,0.04,VWS V14.01,2013-05-06 23:32:00,
2013-05-06 18:37:00,59.6,56.4,29.75,NW,304,0.0,5.0,89,0.00,,---,0.04,VWS V14.01,2013-05-06 23:37:00,
2013-05-06 18:42:00,59.7,56.8,29.75,NW,305,0.0,5.0,90,0.00,,---,0.04,VWS V14.01,2013-05-06 23:42:00,
2013-05-06 18:47:00,59.6,56.7,29.75,WNW,302,0.0,6.0,90,0.00,,---,0.04,VWS V14.01,2013-05-06 23:47:00,
2013-05-06 18:52:00,59.6,56.7,29.75,NNW,336,2.0,6.0,90,0.00,,---,0.04,VWS V14.01,2013-05-06 23:52:00,
2013-05-06 18:57:00,59.5,56.6,29.75,WNW,298,0.0,6.0,90,0.00,,---,0.04,VWS V14.01,2013-05-06 23:57:00,
2013-05-06 19:02:00,59.5,56.6,29.76,WNW,298,0.0,6.0,90,0.00,,---,0.04,VWS V14.01,2013-05-07 00:02:00,
2013-05-06 19:07:00,59.5,56.6,29.76,WNW,301,0.0,3.0,90,0.00,,---,0.04,VWS V14.01,2013-05-07 00:07:00,
2013-05-06 19:12:00,59.4,56.5,29.76,WNW,296,0.0,4.0,90,0.00,,---,0.04,VWS V14.01,2013-05-07 00:12:00,
2013-05-06 19:17:00,59.4,56.8,29.76,WNW,296,0.0,4.0,91,0.00,,---,0.04,VWS V14.01,2013-05-07 00:17:00,
2013-05-06 19:22:00,59.4,56.8,29.76,WNW,296,0.0,4.0,91,0.00,,---,0.04,VWS V14.01,2013-05-07 00:22:00,
2013-05-06 19:27:00,59.4,56.8,29.76,WNW,296,0.0,4.0,91,0.00,,---,0.04,VWS V14.01,2013-05-07 00:27:00,
2013-05-06 19:32:00,59.3,56.7,29.76,WNW,295,1.0,1.0,91,0.00,,---,0.04,VWS V14.01,2013-05-07 00:32:00,
2013-05-06 19:37:00,59.3,56.7,29.76,North,350,2.0,6.0,91,0.00,,---,0.04,VWS V14.01,2013-05-07 00:37:00,
2013-05-06 19:42:00,59.3,56.7,29.76,WNW,289,2.0,6.0,91,0.00,,---,0.04,VWS V14.01,2013-05-07 00:42:00,
2013-05-06 19:47:00,59.3,56.7,29.77,NW,313,2.0,6.0,91,0.00,,---,0.04,VWS V14.01,2013-05-07 00:47:00,
2013-05-06 19:52:00,59.2,56.6,29.77,NW,318,1.0,6.0,91,0.00,,---,0.04,VWS V14.01,2013-05-07 00:52:00,
2013-05-06 19:57:00,59.1,56.5,29.77,NW,315,0.0,6.0,91,0.00,,---,0.04,VWS V14.01,2013-05-07 00:57:00,
2013-05-06 20:02:00,59.0,56.4,29.77,WNW,290,0.0,0.0,91,0.00,,---,0.04,VWS V14.01,2013-05-07 01:02:00,
2013-05-06 20:07:00,59.0,56.4,29.77,WNW,291,0.0,3.0,91,0.00,,---,0.04,VWS V14.01,2013-05-07 01:07:00,
2013-05-06 20:12:00,59.0,56.4,29.77,WNW,294,1.0,5.0,91,0.00,,---,0.04,VWS V14.01,2013-05-07 01:12:00,
2013-05-06 20:17:00,59.0,56.4,29.78,WNW,303,0.0,5.0,91,0.00,,---,0.04,VWS V14.01,2013-05-07 01:17:00,
2013-05-06 20:22:00,59.0,56.7,29.78,WNW,303,3.0,5.0,92,0.00,,---,0.04,VWS V14.01,2013-05-07 01:22:00,
2013-05-06 20:27:00,59.0,56.7,29.78,WNW,291,3.0,5.0,92,0.00,,---,0.04,VWS V14.01,2013-05-07 01:27:00,
2013-05-06 20:32:00,58.9,56.6,29.77,West,277,0.0,1.0,92,0.00,,---,0.04,VWS V14.01,2013-05-07 01:32:00,
2013-05-06 20:37:00,58.8,56.5,29.77,NW,309,0.0,4.0,92,0.00,,---,0.04,VWS V14.01,2013-05-07 01:37:00,
2013-05-06 20:42:00,58.8,56.5,29.77,NW,315,1.0,4.0,92,0.00,,---,0.04,VWS V14.01,2013-05-07 01:42:00,
2013-05-06 20:47:00,58.8,56.5,29.78,WNW,298,0.0,6.0,92,0.00,,---,0.04,VWS V14.01,2013-05-07 01:47:00,
2013-05-06 20:52:00,58.7,56.4,29.78,WNW,292,0.0,6.0,92,0.00,,---,0.04,VWS V14.01,2013-05-07 01:52:00,
2013-05-06 20:57:00,58.6,56.3,29.78,NNW,329,0.0,6.0,92,0.00,,---,0.04,VWS V14.01,2013-05-07 01:57:00,
2013-05-06 21:02:00,58.6,56.3,29.79,NNW,334,0.0,0.0,92,0.00,,---,0.04,VWS V14.01,2013-05-07 02:02:00,
2013-05-06 21:07:00,58.5,56.2,29.79,NW,316,3.0,3.0,92,0.00,,---,0.04,VWS V14.01,2013-05-07 02:07:00,
2013-05-06 21:12:00,58.5,56.2,29.79,NW,315,0.0,3.0,92,0.00,,---,0.04,VWS V14.01,2013-05-07 02:12:00,
2013-05-06 21:17:00,58.4,56.1,29.80,NW,315,0.0,3.0,92,0.00,,---,0.04,VWS V14.01,2013-05-07 02:17:00,
2013-05-06 21:22:00,58.3,56.0,29.80,NW,315,0.0,3.0,92,0.00,,---,0.04,VWS V14.01,2013-05-07 02:22:00,
2013-05-06 21:27:00,58.2,55.9,29.80,NW,315,1.0,3.0,92,0.00,,---,0.04,VWS V14.01,2013-05-07 02:27:00,
2013-05-06 21:32:00,58.1,55.8,29.80,NW,315,0.0,0.0,92,0.00,,---,0.04,VWS V14.01,2013-05-07 02:32:00,
2013-05-06 21:37:00,58.0,55.7,29.80,NW,315,0.0,1.0,92,0.00,,---,0.04,VWS V14.01,2013-05-07 02:37:00,
2013-05-06 21:42:00,57.8,55.8,29.80,NW,315,0.0,3.0,93,0.00,,---,0.04,VWS V14.01,2013-05-07 02:42:00,
2013-05-06 21:47:00,57.7,55.7,29.80,NW,315,0.0,3.0,93,0.00,,---,0.04,VWS V14.01,2013-05-07 02:47:00,
2013-05-06 21:52:00,57.6,55.3,29.80,NW,314,0.0,3.0,92,0.00,,---,0.04,VWS V14.01,2013-05-07 02:52:00,
2013-05-06 21:57:00,57.4,55.4,29.80,NW,314,0.0,3.0,93,0.00,,---,0.04,VWS V14.01,2013-05-07 02:57:00,
2013-05-06 22:02:00,57.3,55.3,29.80,WNW,289,2.0,2.0,93,0.00,,---,0.04,VWS V14.01,2013-05-07 03:02:00,
2013-05-06 22:07:00,57.3,55.3,29.80,WNW,290,1.0,3.0,93,0.00,,---,0.04,VWS V14.01,2013-05-07 03:07:00,
2013-05-06 22:12:00,57.2,55.2,29.80,WNW,290,3.0,3.0,93,0.00,,---,0.04,VWS V14.01,2013-05-07 03:12:00,
2013-05-06 22:17:00,57.2,55.2,29.80,WNW,290,0.0,3.0,93,0.00,,---,0.04,VWS V14.01,2013-05-07 03:17:00,
2013-05-06 22:22:00,57.1,55.1,29.80,WNW,290,0.0,3.0,93,0.00,,---,0.04,VWS V14.01,2013-05-07 03:22:00,
2013-05-06 22:27:00,56.9,54.9,29.80,WNW,290,0.0,3.0,93,0.00,,---,0.04,VWS V14.01,2013-05-07 03:27:00,
2013-05-06 22:32:00,56.9,54.9,29.80,WNW,290,0.0,0.0,93,0.00,,---,0.04,VWS V14.01,2013-05-07 03:32:00,
2013-05-06 22:37:00,56.8,55.1,29.80,WNW,290,0.0,1.0,94,0.00,,---,0.04,VWS V14.01,2013-05-07 03:37:00,
2013-05-06 22:42:00,56.8,55.1,29.80,WNW,290,1.0,2.0,94,0.00,,---,0.04,VWS V14.01,2013-05-07 03:42:00,
2013-05-06 22:47:00,56.7,55.0,29.80,WNW,290,0.0,2.0,94,0.00,,---,0.04,VWS V14.01,2013-05-07 03:47:00,
2013-05-06 22:52:00,56.6,54.9,29.80,WNW,290,0.0,2.0,94,0.00,,---,0.04,VWS V14.01,2013-05-07 03:52:00,
2013-05-06 22:57:00,56.5,54.8,29.80,WNW,290,0.0,2.0,94,0.00,,---,0.04,VWS V14.01,2013-05-07 03:57:00,
2013-05-06 23:01:00,56.5,54.8,29.80,WNW,290,0.0,2.0,94,0.00,,---,0.04,VWS V14.01,2013-05-07 04:01:00,
2013-05-06 23:06:00,56.5,54.8,29.80,WNW,290,0.0,1.0,94,0.00,,---,0.04,VWS V14.01,2013-05-07 04:06:00,
2013-05-06 23:11:00,56.4,54.7,29.80,WNW,290,0.0,3.0,94,0.00,,---,0.04,VWS V14.01,2013-05-07 04:11:00,
2013-05-06 23:16:00,56.3,54.6,29.80,WNW,290,0.0,3.0,94,0.00,,---,0.04,VWS V14.01,2013-05-07 04:16:00,
2013-05-06 23:21:00,56.3,54.6,29.80,WNW,290,0.0,3.0,94,0.00,,---,0.04,VWS V14.01,2013-05-07 04:21:00,
2013-05-06 23:26:00,56.3,54.6,29.80,WNW,290,0.0,3.0,94,0.00,,---,0.04,VWS V14.01,2013-05-07 04:26:00,
2013-05-06 23:31:00,56.3,54.6,29.80,WNW,290,0.0,3.0,94,0.00,,---,0.04,VWS V14.01,2013-05-07 04:31:00,
2013-05-06 23:36:00,56.3,54.6,29.80,WNW,290,0.0,1.0,94,0.00,,---,0.04,VWS V14.01,2013-05-07 04:36:00,
2013-05-06 23:41:00,56.3,54.6,29.80,WNW,290,2.0,2.0,94,0.00,,---,0.04,VWS V14.01,2013-05-07 04:41:00,
2013-05-06 23:46:00,56.3,54.6,29.80,WNW,290,0.0,3.0,94,0.00,,---,0.04,VWS V14.01,2013-05-07 04:46:00,
2013-05-06 23:51:00,56.2,54.5,29.80,WNW,290,0.0,3.0,94,0.00,,---,0.04,VWS V14.01,2013-05-07 04:51:00,
2013-05-06 23:56:00,56.0,54.3,29.80,WNW,290,0.0,3.0,94,0.00,,---,0.04,VWS V14.01,2013-05-07 04:56:00,